SCP
0 0 0 0 0 0 0 0 0 0 0 0 0 0 0 0 0 0 0 0 0 0 0 0 0 0 0 0 0 0 0 0 0 0 0 0 0 0 0 0 0 0 0
0 0 0 0 0 0 0 0 0 0 0 0 0 0 0 0 0 0 0 0 0 0 0 0 0 0 0 0 0 0 0 0 0 0 0 0 0 0 0 0 0 0 0
0 0 0 0 0 0 0 0 0 0 0 0 0 0 0 0 0 0 0 0 0 0 0 0 0 0 0 0 0 0 0 0 0 0 0 0 0 0 0 0 0 0 0
0 0 0 0 0 0 0 0 0 0 0 0 0 0 0 0 0 0 0 0 0 0 0 0 0 0 0 0 0 0 0 0 0 0 0 0 0 0 0 0 0 0 0
0 0 0 0 0 0 0 0 0 0 0 0 0 0 0 0 0 0 0 0 0 0 0 0 0 0 0 0 0 0 0 0 0 0 0 0 0 0 0 0 0 0 0
0 0 0 0 0 0 0 0 0 0 0 0 0 0 0 0 0 0 0 0 0 0 0 0 0 0 0 0 0 0 0 0 0 0 0 0 0 0 0 0 0 0 -0
0 0 0 0 0 0 0 0 0 0 0 0 0 0 0 0 0 0 0 0 0 0 0 0 0 0 0 0 0 0 0 0 0 0 0 0 0 0 0 0 0 0 0
0 0 0 0 0 0 0 0 0 0 0 0 0 0 0 0 0 0 0 0 0 0 0 0 0 0 0 0 0 0 0 0 0 0 0 0 0 0 0 0 0 0 0
0 0 0 0 0 0 0 0 0 0 0 0 0 0 0 0 0 0 0 0 0 0 0 0 0 0 0 0 0 0 0 0 0 0 0 0 0 0 0 0 0 0 0
0 0 0 0 0 0 0 0 0 0 0 0 0 0 0 0 0 0 0 0 0 0 0 0 0 0 0 0 0 0 0 0 0 0 0 0 0 0 0 0 0 0 0
0 0 0 0 0 0 0 0 0 0 0 0 0 0 0 0 0 0 0 0 0 0 0 0 0 0 0 0 0 0 0 0 0 0 0 0 0 0 0 0 0 0 0
0 0 0 0 0 0 0 0 0 0 0 0 0 0 0 0 0 0 0 0 0 0 0 0 0 0 0 0 0 0 0 0 0 0 0 0 0 0 0 0 0 0 0
0 0 0 0 0 0 0 0 0 0 0 0 0 0 0 0 0 0 0 0 0 0 0 0 0 0 0 0 0 0 0 0 0 0 0 0 0 0 0 0 0 0 0
0 0 0 0 0 0 0 0 0 0 0 0 0 0 0 0 0 0 0 0 0 0 0 0 0 0 0 0 0 0 0 0 0 0 0 0 0 0 0 0 0 0 0
0 0 0 0 0 0 0 0 0 0 0 0 0 0 0 0 0 0 0 0 0 0 0 0 0 0 0 0 0 0 0 0 0 0 0 0 0 0 0 0 0 0 0
0 0 0 0 0 0 0 0 0 0 0 0 0 0 0 0 0 0 0 0 0 0 0 0 0 0 0 0 0 0 0 0 0 0 0 0 0 0 0 0 0 0 0
0 0 0 0 0 0 0 0 0 0 0 0 0 0 0 0 0 0 0 0 0 0 0 0 0 0 0 0 0 0 0 0 0 0 0 0 0 0 0 0 0 0 0
0 0 0 0 0 0 0 0 0 0 0 0 0 0 0 0 0 0 0 0 0 0 0 0 0 0 0 0 0 0 0 0 0 0 0 0 0 0 0 0 0 0 0
0 0 0 0 0 0 0 0 0 0 0 0 0 0 0 0 0 0 0 0 0 0 0 0 0 0 0 0 0 0 0 0 0 0 0 0 0 0 0 0 0 0 0
0 0 0 0 0 0 0 0 0 0 0 0 0 0 0 0 0 0 0 0 0 0 0 0 0 0 0 0 0 0 0 0 0 0 0 0 0 0 0 0 0 0 0
0 0 0 0 0 0 0 0 0 0 0 0 0 0 0 0 0 0 0 0 0 0 0 0 0 0 0 0 0 0 0 0 0 0 0 0 0 0 0 0 0 0 0
0 0 0 0 0 0 0 0 0 0 0 0 0 0 0 0 0 0 0 0 0 0 0 0 0 0 0 0 0 0 0 0 0 0 0 0 0 0 0 0 0 0 0
0 0 0 0 0 0 0 0 0 0 0 0 0 0 0 0 0 0 0 0 0 0 0 0 0 0 0 0 0 0 0 0 0 0 0 0 0 0 0 0 0 0 0
0 0 0 0 0 0 0 0 0 0 0 0 0 0 0 0 0 0 0 0 0 0 0 0 0 0 0 0 0 0 0 0 0 0 0 0 0 0 0 0 0 0 0
0 0 0 0 0 0 0 0 0 0 0 0 0 0 0 0 0 0 0 0 0 0 0 0 0 0 0 0 0 0 0 0 0 0 0 0 0 0 0 0 0 0 0
0 0 0 0 0 0 0 0 0 0 0 0 0 0 0 0 0 0 0 0 0 0 0 0 0 0 0 0 0 0 0 0 0 0 0 0 0 0 0 0 0 0 0
Wind_Speed_500mb
50 44 36 34 30 28 25 25 27 34 40 45 44 41 38 32 27 23 26 25 23 19 15 12 13 13 12 12 13 14 15 17 15 11 10 6 4 9 12 11 14 17 24
63 54 44 40 34 30 29 30 35 41 44 43 44 41 40 36 34 34 30 25 21 22 21 19 19 18 13 14 14 14 14 16 15 9 7 10 1 9 13 17 21 32 37
80 63 52 47 42 40 39 39 44 49 48 45 45 44 43 42 40 36 31 32 30 28 26 22 18 16 12 9 11 13 15 17 14 11 4 1 3 18 16 19 27 38 46
76 64 56 53 49 47 46 47 53 53 49 47 45 46 43 47 44 40 40 40 36 31 24 18 14 9 7 9 11 14 17 16 17 17 16 13 12 10 15 20 41 44 47
85 74 63 55 53 56 55 57 58 54 52 50 52 50 50 48 49 48 46 42 36 28 20 14 9 7 8 9 13 16 16 18 20 20 17 15 15 17 25 38 52 48 44
82 69 58 55 59 60 61 63 62 60 57 56 53 52 51 54 57 54 47 41 33 24 18 13 8 5 8 10 13 17 20 23 25 25 25 24 25 26 27 38 52 58 61
79 71 67 66 65 68 67 65 65 63 60 57 56 53 51 53 53 50 44 37 31 23 19 15 10 7 7 9 12 14 18 21 24 26 26 27 27 29 31 35 44 55 63
76 74 69 65 68 67 69 68 67 65 63 60 57 55 56 56 50 43 40 34 28 23 21 17 11 5 4 6 8 12 16 19 22 24 26 28 29 30 32 34 40 53 59
77 72 65 65 68 70 71 70 68 67 65 63 62 63 62 57 49 45 40 35 31 27 24 19 11 6 2 2 7 11 15 19 23 24 25 26 28 29 31 32 35 39 45
74 70 67 69 70 70 69 68 69 70 68 67 67 66 60 53 47 42 41 38 34 30 25 19 13 9 4 2 5 10 15 18 20 23 25 27 28 30 32 34 36 38 41
77 74 71 72 72 70 72 73 74 74 74 72 70 65 59 54 47 42 41 38 35 32 27 21 16 11 8 6 6 9 12 16 19 22 25 29 32 34 36 38 40 42 46
74 75 73 76 76 76 78 79 80 80 77 74 70 64 58 54 49 45 44 41 37 33 28 25 20 16 13 11 9 10 12 16 20 24 28 32 36 38 41 44 46 48 51
74 77 78 81 82 82 83 84 85 84 80 77 72 67 63 56 49 47 44 42 40 36 34 30 25 21 19 17 16 16 17 19 23 26 30 34 38 41 45 48 51 54 57
77 79 82 86 88 90 89 90 88 85 83 80 75 71 67 56 51 46 44 44 42 41 38 34 30 27 25 24 23 23 23 25 27 31 34 37 41 45 48 52 55 59 62
77 86 92 94 95 95 94 92 92 89 86 83 79 75 64 57 53 48 47 47 46 44 42 39 37 33 31 31 30 30 31 33 34 35 37 40 44 47 49 54 58 62 64
86 93 93 96 98 98 98 98 98 94 90 86 83 74 66 61 54 50 51 50 49 50 47 46 42 38 38 37 36 37 39 40 40 40 40 42 45 47 49 52 56 60 58
89 95 102 100 96 94 97 96 94 95 88 87 81 72 68 62 56 54 54 53 55 52 51 49 46 43 42 43 43 42 45 45 44 44 44 47 48 49 51 52 57 58 53
90 91 94 92 88 87 84 80 82 89 82 83 77 73 69 62 60 57 54 56 55 55 53 51 49 47 47 48 48 49 49 49 47 47 49 51 53 52 52 56 59 59 57
95 92 87 80 79 71 62 66 72 66 71 75 74 68 65 64 60 58 57 56 56 56 54 52 52 52 51 52 52 52 54 51 51 52 52 54 57 53 53 56 57 59 61
72 68 61 55 52 54 58 59 61 60 64 63 58 57 57 55 53 53 52 51 53 51 51 53 53 55 56 56 55 55 56 56 54 55 57 57 57 56 53 48 52 59 62
47 42 40 44 41 48 53 64 53 58 50 44 46 46 45 44 43 43 45 46 48 50 51 53 56 58 59 59 57 57 59 58 57 59 59 59 58 56 52 41 48 61 54
38 33 28 31 38 44 52 52 51 41 38 39 40 42 41 39 37 38 40 43 47 51 52 52 54 57 58 59 58 57 56 56 61 61 60 60 61 58 49 38 54 56 60
22 33 44 47 42 39 38 40 35 37 40 41 41 40 39 36 34 37 40 45 47 50 51 54 55 56 57 58 57 57 56 57 60 63 63 64 63 46 46 59 60 58 60
36 35 34 34 36 37 35 30 30 33 34 37 39 41 41 38 37 39 43 47 50 54 58 62 64 61 59 58 56 56 58 60 62 60 61 59 54 51 54 59 55 59 59
31 31 33 31 28 27 29 32 32 31 34 37 41 44 44 44 43 44 46 50 55 59 63 65 64 63 64 57 55 58 60 60 59 59 63 63 59 58 56 58 61 63 58
33 32 28 23 22 24 28 31 35 35 34 38 45 50 50 50 50 51 54 58 60 62 65 66 65 61 60 57 56 59 61 59 54 57 66 70 65 66 64 66 67 63 55
Wind_Direction_500mb
216 215 214 215 209 207 205 199 178 167 167 168 170 173 177 182 189 194 180 177 175 174 168 161 158 142 130 118 108 85 75 67 72 97 98 85 16 333 342 348 352 347 348
211 212 212 212 207 205 196 188 176 169 169 176 178 178 180 180 187 186 181 179 170 160 151 140 130 119 97 85 70 56 36 44 60 78 168 164 111 328 306 318 329 339 340
211 208 209 209 204 200 197 188 176 176 178 180 181 183 179 182 186 184 183 166 159 149 139 132 122 107 86 61 44 31 18 24 31 31 35 321 254 327 279 308 327 332 338
211 212 207 207 205 198 192 185 183 181 181 184 188 194 194 187 183 180 171 159 151 148 142 133 120 105 66 37 22 25 21 26 30 29 28 24 352 344 312 306 320 332 337
212 208 209 210 205 199 195 189 187 186 187 190 196 198 191 187 178 170 165 158 155 151 143 138 126 95 63 27 23 23 21 23 27 30 32 13 355 341 325 321 326 330 340
203 206 207 205 203 198 196 192 190 190 193 196 195 195 195 184 175 170 169 165 163 161 161 160 149 112 60 39 25 22 21 18 13 9 3 356 353 343 337 328 331 333 338
197 198 200 202 201 201 197 196 195 196 197 196 194 193 193 187 180 177 177 176 176 175 177 174 164 110 59 26 17 12 9 7 2 0 354 350 345 342 335 332 329 330 331
201 204 207 208 204 203 200 198 196 198 198 196 196 193 188 185 182 183 182 185 187 186 187 184 173 132 72 29 11 3 359 355 350 347 343 337 335 330 326 327 329 328 325
202 207 208 208 205 201 200 199 197 198 199 197 196 190 188 189 190 188 191 193 196 197 194 193 190 172 143 12 352 346 348 346 345 341 339 333 328 324 322 321 321 323 318
204 207 209 209 204 202 199 197 199 200 199 197 195 194 194 194 195 198 199 200 202 201 203 203 197 196 201 268 323 340 344 345 347 345 338 332 324 317 315 314 314 313 306
208 209 209 208 204 201 200 198 198 199 199 197 197 198 197 198 200 202 203 208 208 210 210 207 208 209 222 251 293 325 336 344 340 339 335 330 323 318 310 308 309 307 305
212 212 210 208 204 202 202 202 201 202 202 201 201 201 203 204 204 205 209 211 214 215 216 215 214 218 227 238 267 292 313 324 329 331 332 330 322 314 308 307 306 305 304
211 211 211 210 207 206 206 205 206 205 203 204 205 205 207 208 208 210 213 215 219 220 221 221 223 227 228 239 260 274 295 308 315 319 322 322 319 313 308 306 304 305 305
213 212 213 213 211 211 209 210 209 208 207 208 209 211 212 211 212 214 217 221 223 225 225 226 228 229 234 248 259 272 287 295 301 306 309 314 316 313 309 306 305 304 304
214 217 216 214 214 214 213 215 214 212 212 213 214 216 214 214 214 216 221 223 226 228 229 231 230 232 243 251 263 274 282 288 292 295 302 309 313 311 306 304 305 305 305
223 220 218 217 217 217 217 217 217 216 215 217 219 217 215 217 217 222 226 226 229 230 232 234 234 241 248 256 265 273 280 284 285 290 296 306 308 307 306 305 304 304 306
227 222 220 218 218 220 221 220 220 220 218 222 222 220 220 221 223 226 228 234 233 235 237 237 241 249 253 261 268 272 277 279 282 286 296 300 305 307 305 304 302 302 300
227 221 218 219 218 223 226 225 226 224 223 224 225 225 223 224 227 229 235 236 236 239 240 243 249 253 257 262 267 271 274 277 279 284 291 298 304 304 302 301 301 300 301
234 227 219 213 217 224 229 228 224 225 224 225 225 225 224 226 229 234 237 237 239 241 244 249 253 258 262 264 266 269 273 275 279 282 289 296 299 301 299 297 297 300 302
230 219 212 209 214 217 222 224 221 222 223 224 225 224 225 229 233 236 239 241 242 246 248 252 256 261 264 264 268 271 273 275 279 282 288 293 298 298 298 292 293 292 296
186 182 198 203 212 217 226 220 220 221 224 222 220 221 223 227 232 236 236 239 242 247 250 255 259 263 265 267 268 268 271 276 279 283 288 292 293 292 290 281 279 281 295
177 180 195 212 210 209 211 215 217 219 214 209 209 214 219 222 221 226 231 236 241 247 252 256 261 265 268 269 267 268 271 275 279 284 286 289 291 293 290 275 266 272 286
198 205 199 189 185 189 197 200 199 194 198 205 213 216 213 219 226 234 240 243 245 249 253 257 263 268 270 271 271 271 270 272 274 281 286 289 292 287 272 275 278 283 296
181 179 175 178 179 176 178 184 191 201 211 218 219 216 222 228 235 240 243 246 252 256 259 262 265 269 271 269 268 270 273 275 276 280 282 282 277 275 277 284 286 294 299
167 169 168 168 173 183 192 196 203 212 219 221 223 226 233 240 246 250 256 259 261 263 264 266 266 264 267 272 271 271 274 276 277 278 278 277 276 278 280 283 287 294 295
170 169 169 177 191 202 209 215 219 222 227 231 234 238 243 249 254 258 260 261 263 265 268 268 267 265 269 274 276 279 282 286 290 291 289 287 285 283 286 286 289 293 290
Wind_Speed_850mb
50 44 36 34 30 28 25 25 27 34 40 45 44 41 38 32 27 23 26 25 23 19 15 12 13 13 12 12 13 14 15 17 15 11 10 6 4 9 12 11 14 17 24
63 54 44 40 34 30 29 30 35 41 44 43 44 41 40 36 34 34 30 25 21 22 21 19 19 18 13 14 14 14 14 16 15 9 7 10 1 9 13 17 21 32 37
80 63 52 47 42 40 39 39 44 49 48 45 45 44 43 42 40 36 31 32 30 28 26 22 18 16 12 9 11 13 15 17 14 11 4 1 3 18 16 19 27 38 46
76 64 56 53 49 47 46 47 53 53 49 47 45 46 43 47 44 40 40 40 36 31 24 18 14 9 7 9 11 14 17 16 17 17 16 13 12 10 15 20 41 44 47
85 74 63 55 53 56 55 57 58 54 52 50 52 50 50 48 49 48 46 42 36 28 20 14 9 7 8 9 13 16 16 18 20 20 17 15 15 17 25 38 52 48 44
82 69 58 55 59 60 61 63 62 60 57 56 53 52 51 54 57 54 47 41 33 24 18 13 8 5 8 10 13 17 20 23 25 25 25 24 25 26 27 38 52 58 61
79 71 67 66 65 68 67 65 65 63 60 57 56 53 51 53 53 50 44 37 31 23 19 15 10 7 7 9 12 14 18 21 24 26 26 27 27 29 31 35 44 55 63
76 74 69 65 68 67 69 68 67 65 63 60 57 55 56 56 50 43 40 34 28 23 21 17 11 5 4 6 8 12 16 19 22 24 26 28 29 30 32 34 40 53 59
77 72 65 65 68 70 71 70 68 67 65 63 62 63 62 57 49 45 40 35 31 27 24 19 11 6 2 2 7 11 15 19 23 24 25 26 28 29 31 32 35 39 45
74 70 67 69 70 70 69 68 69 70 68 67 67 66 60 53 47 42 41 38 34 30 25 19 13 9 4 2 5 10 15 18 20 23 25 27 28 30 32 34 36 38 41
77 74 71 72 72 70 72 73 74 74 74 72 70 65 59 54 47 42 41 38 35 32 27 21 16 11 8 6 6 9 12 16 19 22 25 29 32 34 36 38 40 42 46
74 75 73 76 76 76 78 79 80 80 77 74 70 64 58 54 49 45 44 41 37 33 28 25 20 16 13 11 9 10 12 16 20 24 28 32 36 38 41 44 46 48 51
74 77 78 81 82 82 83 84 85 84 80 77 72 67 63 56 49 47 44 42 40 36 34 30 25 21 19 17 16 16 17 19 23 26 30 34 38 41 45 48 51 54 57
77 79 82 86 88 90 89 90 88 85 83 80 75 71 67 56 51 46 44 44 42 41 38 34 30 27 25 24 23 23 23 25 27 31 34 37 41 45 48 52 55 59 62
77 86 92 94 95 95 94 92 92 89 86 83 79 75 64 57 53 48 47 47 46 44 42 39 37 33 31 31 30 30 31 33 34 35 37 40 44 47 49 54 58 62 64
86 93 93 96 98 98 98 98 98 94 90 86 83 74 66 61 54 50 51 50 49 50 47 46 42 38 38 37 36 37 39 40 40 40 40 42 45 47 49 52 56 60 58
89 95 102 100 96 94 97 96 94 95 88 87 81 72 68 62 56 54 54 53 55 52 51 49 46 43 42 43 43 42 45 45 44 44 44 47 48 49 51 52 57 58 53
90 91 94 92 88 87 84 80 82 89 82 83 77 73 69 62 60 57 54 56 55 55 53 51 49 47 47 48 48 49 49 49 47 47 49 51 53 52 52 56 59 59 57
95 92 87 80 79 71 62 66 72 66 71 75 74 68 65 64 60 58 57 56 56 56 54 52 52 52 51 52 52 52 54 51 51 52 52 54 57 53 53 56 57 59 61
72 68 61 55 52 54 58 59 61 60 64 63 58 57 57 55 53 53 52 51 53 51 51 53 53 55 56 56 55 55 56 56 54 55 57 57 57 56 53 48 52 59 62
47 42 40 44 41 48 53 64 53 58 50 44 46 46 45 44 43 43 45 46 48 50 51 53 56 58 59 59 57 57 59 58 57 59 59 59 58 56 52 41 48 61 54
38 33 28 31 38 44 52 52 51 41 38 39 40 42 41 39 37 38 40 43 47 51 52 52 54 57 58 59 58 57 56 56 61 61 60 60 61 58 49 38 54 56 60
22 33 44 47 42 39 38 40 35 37 40 41 41 40 39 36 34 37 40 45 47 50 51 54 55 56 57 58 57 57 56 57 60 63 63 64 63 46 46 59 60 58 60
36 35 34 34 36 37 35 30 30 33 34 37 39 41 41 38 37 39 43 47 50 54 58 62 64 61 59 58 56 56 58 60 62 60 61 59 54 51 54 59 55 59 59
31 31 33 31 28 27 29 32 32 31 34 37 41 44 44 44 43 44 46 50 55 59 63 65 64 63 64 57 55 58 60 60 59 59 63 63 59 58 56 58 61 63 58
33 32 28 23 22 24 28 31 35 35 34 38 45 50 50 50 50 51 54 58 60 62 65 66 65 61 60 57 56 59 61 59 54 57 66 70 65 66 64 66 67 63 55
Wind_Direction_850mb
216 215 214 215 209 207 205 199 178 167 167 168 170 173 177 182 189 194 180 177 175 174 168 161 158 142 130 118 108 85 75 67 72 97 98 85 16 333 342 348 352 347 348
211 212 212 212 207 205 196 188 176 169 169 176 178 178 180 180 187 186 181 179 170 160 151 140 130 119 97 85 70 56 36 44 60 78 168 164 111 328 306 318 329 339 340
211 208 209 209 204 200 197 188 176 176 178 180 181 183 179 182 186 184 183 166 159 149 139 132 122 107 86 61 44 31 18 24 31 31 35 321 254 327 279 308 327 332 338
211 212 207 207 205 198 192 185 183 181 181 184 188 194 194 187 183 180 171 159 151 148 142 133 120 105 66 37 22 25 21 26 30 29 28 24 352 344 312 306 320 332 337
212 208 209 210 205 199 195 189 187 186 187 190 196 198 191 187 178 170 165 158 155 151 143 138 126 95 63 27 23 23 21 23 27 30 32 13 355 341 325 321 326 330 340
203 206 207 205 203 198 196 192 190 190 193 196 195 195 195 184 175 170 169 165 163 161 161 160 149 112 60 39 25 22 21 18 13 9 3 356 353 343 337 328 331 333 338
197 198 200 202 201 201 197 196 195 196 197 196 194 193 193 187 180 177 177 176 176 175 177 174 164 110 59 26 17 12 9 7 2 0 354 350 345 342 335 332 329 330 331
201 204 207 208 204 203 200 198 196 198 198 196 196 193 188 185 182 183 182 185 187 186 187 184 173 132 72 29 11 3 359 355 350 347 343 337 335 330 326 327 329 328 325
202 207 208 208 205 201 200 199 197 198 199 197 196 190 188 189 190 188 191 193 196 197 194 193 190 172 143 12 352 346 348 346 345 341 339 333 328 324 322 321 321 323 318
204 207 209 209 204 202 199 197 199 200 199 197 195 194 194 194 195 198 199 200 202 201 203 203 197 196 201 268 323 340 344 345 347 345 338 332 324 317 315 314 314 313 306
208 209 209 208 204 201 200 198 198 199 199 197 197 198 197 198 200 202 203 208 208 210 210 207 208 209 222 251 293 325 336 344 340 339 335 330 323 318 310 308 309 307 305
212 212 210 208 204 202 202 202 201 202 202 201 201 201 203 204 204 205 209 211 214 215 216 215 214 218 227 238 267 292 313 324 329 331 332 330 322 314 308 307 306 305 304
211 211 211 210 207 206 206 205 206 205 203 204 205 205 207 208 208 210 213 215 219 220 221 221 223 227 228 239 260 274 295 308 315 319 322 322 319 313 308 306 304 305 305
213 212 213 213 211 211 209 210 209 208 207 208 209 211 212 211 212 214 217 221 223 225 225 226 228 229 234 248 259 272 287 295 301 306 309 314 316 313 309 306 305 304 304
214 217 216 214 214 214 213 215 214 212 212 213 214 216 214 214 214 216 221 223 226 228 229 231 230 232 243 251 263 274 282 288 292 295 302 309 313 311 306 304 305 305 305
223 220 218 217 217 217 217 217 217 216 215 217 219 217 215 217 217 222 226 226 229 230 232 234 234 241 248 256 265 273 280 284 285 290 296 306 308 307 306 305 304 304 306
227 222 220 218 218 220 221 220 220 220 218 222 222 220 220 221 223 226 228 234 233 235 237 237 241 249 253 261 268 272 277 279 282 286 296 300 305 307 305 304 302 302 300
227 221 218 219 218 223 226 225 226 224 223 224 225 225 223 224 227 229 235 236 236 239 240 243 249 253 257 262 267 271 274 277 279 284 291 298 304 304 302 301 301 300 301
234 227 219 213 217 224 229 228 224 225 224 225 225 225 224 226 229 234 237 237 239 241 244 249 253 258 262 264 266 269 273 275 279 282 289 296 299 301 299 297 297 300 302
230 219 212 209 214 217 222 224 221 222 223 224 225 224 225 229 233 236 239 241 242 246 248 252 256 261 264 264 268 271 273 275 279 282 288 293 298 298 298 292 293 292 296
186 182 198 203 212 217 226 220 220 221 224 222 220 221 223 227 232 236 236 239 242 247 250 255 259 263 265 267 268 268 271 276 279 283 288 292 293 292 290 281 279 281 295
177 180 195 212 210 209 211 215 217 219 214 209 209 214 219 222 221 226 231 236 241 247 252 256 261 265 268 269 267 268 271 275 279 284 286 289 291 293 290 275 266 272 286
198 205 199 189 185 189 197 200 199 194 198 205 213 216 213 219 226 234 240 243 245 249 253 257 263 268 270 271 271 271 270 272 274 281 286 289 292 287 272 275 278 283 296
181 179 175 178 179 176 178 184 191 201 211 218 219 216 222 228 235 240 243 246 252 256 259 262 265 269 271 269 268 270 273 275 276 280 282 282 277 275 277 284 286 294 299
167 169 168 168 173 183 192 196 203 212 219 221 223 226 233 240 246 250 256 259 261 263 264 266 266 264 267 272 271 271 274 276 277 278 278 277 276 278 280 283 287 294 295
170 169 169 177 191 202 209 215 219 222 227 231 234 238 243 249 254 258 260 261 263 265 268 268 267 265 269 274 276 279 282 286 290 291 289 287 285 283 286 286 289 293 290